Terminal Aerodrome Forecast
Issued by NWS Newport/Morehead City, NC

Home | Current Version | Previous Version | Text Only | Print | Product List | Glossary On
Versions: 1 2 3 4 5 6 7 8 9 10 11 12 13 14 15 16 17
712
FTUS42 KMHX 061758 CCA
TAFEWN
TAF COR
KEWN 061758Z 0618/0718 13009KT 5SM BR BKN004
      TEMPO 0618/0619 BKN006
     FM062200 24009G16KT P6SM VCSH SCT003 BKN007
     FM070400 30007KT 5SM BR SCT003 BKN007
     FM071300 34006KT P6SM SCT250=

USA.gov is the U.S. government's official web portal to all federal, state and local government web resources and services.